Weather WX

World > North America > United States > Pennsylvania

Bellvue, Pennsylvania Regional Weather

Lat: 40.50N, Lon: 80.07W
Wx Zone: PAZ021
Feedback

Bellvue, PA Regional Weather

Expires:201906260500;;087071
ASUS41 KPHI 260412
RWRPHI

REGIONAL WEATHER ROUNDUP
NATIONAL WEATHER SERVICE MOUNT HOLLY NJ
1200 AM EDT WED JUN 26 2019

NOTE:  "FAIR" INDICATES FEW OR NO CLOUDS BELOW 12,000 FEET WITH NO
SIGNIFICANT WEATHER AND/OR OBSTRUCTIONS TO VISIBILITY.

 * = STATION DOES NOT REPORT PRECIPITATION (E.G. RAIN, SNOW, ETC.) 
        OR FOG.


PAZ001-021-NYZ056-072-MDZ011-DCZ001-260500-
OTHER NEARBY LOCATIONS
  
CITY           SKY/WX    TMP DP  RH WIND       PRES   REMARKS
HARRISBURG     MOCLDY    70  63  78 NW8       29.96R                  
STATE COLLEGE  FAIR      67  57  69 CALM      30.03R                  
WILLIAMSPORT   FAIR      68  58  70 W8        29.97R                  
BINGHAMTON     FAIR      66  56  70 NW6       30.00R                  
NEW YORK CITY  FAIR      74  70  87 CALM      29.92R                  
BALTIMORE      MOCLDY    72  63  73 W6        29.96R                  
WASHINGTON DC  MOCLDY    79  60  52 W6        29.98R                  

$$
  

SKY/WX - Weather  TMP - Temperature  DP - Dew Point  RH - Relative Humidity
WIND - Wind Direction/Speed PRES - Barometric Pressure VSB - Visibility
WCI - Wind Chill Index E13G22 Wind - East Wind 13 mph/Gusts of 22 mph